Content
SEND FEEDBACK

Daily
Averages
Monthly
Summary
United States of America

WILMINGTON, NORTH CAROLINA


Home > North America > United States > North Carolina
Elevation: 72 feet     Latitude: 34 16N     Longitude: 077 54W

WEATHER
 
SELECT A DAY
Number of Records: 212,380;   Date Range: 1/1/95 - 10/24/14
 
SHARE

PRINT THIS DATA

[ ← Previous Day ]
WEATHER ALMANAC - OCTOBER 8, 2013
[ Next Day → ]
[ °C ]   °F
We're sorry. There is no daily almanac available for Wilmington, North Carolina on October 8, 2013.
WEATHER BY HOUR - OCTOBER 8, 2013
[ °C ]   °F
Local TimeTemperatureDewpointHumidityBarometerVisibilityWind DirectionWind SpeedGust SpeedPrecipitationEventsConditions
12:45 AM73.4 °F71.6 °F94 %29.91 in9.0 miNE (40°)9.2 mph0.00 inOvercast
12:53 AM73.0 °F71.1 °F93 %29.90 in9.0 miNNE (30°)9.2 mph0.00 inOvercast
1:07 AM73.4 °F71.6 °F94 %29.90 in5.0 miNNE (30°)9.2 mph0.01 inRainLight Rain
1:11 AM73.4 °F71.6 °F94 %29.90 in6.0 miNNE (20°)10.4 mph0.01 inRainLight Rain
1:45 AM71.6 °F71.6 °F100 %29.91 in6.0 miNorth (10°)8.1 mph0.02 inRainLight Rain
1:53 AM72.0 °F70.0 °F93 %29.91 in7.0 miNorth (10°)8.1 mph0.03 inRainLight Rain
2:06 AM71.6 °F69.8 °F94 %29.91 in1.8 miNNE (30°)12.7 mph0.04 inRainHeavy Rain
2:21 AM71.6 °F69.8 °F94 %29.91 in1.2 miNorth (360°)11.5 mph19.6 mph0.21 inRainHeavy Rain
2:31 AM71.6 °F69.8 °F94 %29.91 in1.5 miNorth (350°)12.7 mph0.40 inRainHeavy Rain
2:36 AM71.6 °F69.8 °F94 %29.91 in3.0 miNorth (360°)10.4 mph0.41 inRainRain
2:44 AM71.6 °F69.8 °F94 %29.91 in4.0 miNorth (360°)12.7 mph0.42 inRainRain
2:53 AM72.0 °F70.0 °F93 %29.91 in4.0 miNorth (350°)9.2 mph0.44 inRainHeavy Rain
3:44 AM71.6 °F69.8 °F94 %29.89 in10.0 miENE (70°)10.4 mph0.09 inRainLight Rain
3:53 AM72.0 °F70.0 °F93 %29.88 in10.0 miEast (80°)10.4 mph0.09 inRainLight Rain
4:20 AM71.6 °F69.8 °F94 %29.89 in10.0 miNorth (350°)6.9 mph0.00 inMostly Cloudy
4:38 AM71.6 °F69.8 °F94 %29.91 in10.0 miNorth (350°)8.1 mph0.00 inRainLight Rain
4:53 AM72.0 °F69.1 °F91 %29.91 in10.0 miNorth (360°)9.2 mph0.00 inOvercast
5:05 AM71.6 °F69.8 °F94 %29.93 in10.0 miNorth (360°)10.4 mphOvercast
5:12 AM71.6 °F69.8 °F94 %29.93 in10.0 miNorth (10°)13.8 mphOvercast
5:28 AM71.6 °F69.8 °F94 %29.93 in10.0 miNNE (20°)15.0 mph0.00 inOvercast
5:53 AM71.1 °F68.0 °F90 %29.96 in10.0 miNNE (20°)11.5 mph0.00 inOvercast
6:03 AM71.6 °F68.0 °F88 %29.96 in10.0 miNNE (30°)12.7 mphOvercast
6:33 AM69.8 °F68.0 °F94 %29.95 in8.0 miNNE (20°)17.3 mph0.02 inRainRain
6:53 AM66.0 °F63.0 °F90 %29.96 in6.0 miNorth (360°)18.4 mph0.05 inRainRain
7:53 AM64.0 °F62.1 °F93 %30.00 in10.0 miNNE (30°)18.4 mph0.03 inOvercast
8:53 AM63.0 °F60.1 °F90 %30.02 in10.0 miNNE (20°)21.9 mph31.1 mphOvercast
9:01 AM62.6 °F60.8 °F94 %30.03 in10.0 miNNE (30°)19.6 mph26.5 mphOvercast
9:53 AM62.1 °F57.9 °F86 %30.05 in10.0 miNNE (20°)15.0 mph24.2 mphOvercast
10:53 AM62.1 °F57.9 °F86 %30.05 in10.0 miNNE (30°)17.3 mph26.5 mphOvercast
11:53 AM63.0 °F57.9 °F84 %30.06 in10.0 miNNE (30°)21.9 mph27.6 mph0.00 inRainLight Rain
12:53 PM63.0 °F59.0 °F87 %30.06 in10.0 miNNE (20°)19.6 mph24.2 mph0.00 inRainLight Rain
1:53 PM61.0 °F57.9 °F90 %30.05 in8.0 miNNE (20°)17.3 mph24.2 mph0.00 inRainLight Rain
2:53 PM60.1 °F57.9 °F93 %30.05 in8.0 miNNE (20°)17.3 mph0.04 inRainLight Rain
3:53 PM60.1 °F57.9 °F93 %30.05 in8.0 miNNE (20°)16.1 mph0.05 inRainLight Rain
4:11 PM60.8 °F57.2 °F88 %30.05 in6.0 miNNE (20°)16.1 mph0.01 inRainLight Rain
4:53 PM60.1 °F57.0 °F90 %30.04 in4.0 miNNE (20°)16.1 mph24.2 mph0.07 inRainRain
5:21 PM60.8 °F57.2 °F88 %30.04 in1.8 miNNE (30°)16.1 mph24.2 mph0.04 inRainHeavy Rain
5:32 PM60.8 °F57.2 °F88 %30.03 in3.0 miNNE (30°)19.6 mph0.12 inRainHeavy Rain
5:53 PM60.1 °F57.9 °F93 %30.02 in7.0 miNNE (30°)20.7 mph26.5 mph0.15 inRainLight Rain
6:53 PM60.1 °F57.9 °F93 %30.06 in6.0 miNorth (350°)13.8 mph0.07 inRainRain
7:53 PM60.1 °F57.0 °F90 %30.05 in10.0 miNorth (10°)15.0 mph27.6 mph0.04 inRainLight Rain
8:53 PM60.1 °F57.0 °F90 %30.08 in10.0 miNorth (10°)12.7 mph24.2 mph0.01 inRainLight Rain
9:53 PM59.0 °F57.0 °F93 %30.09 in5.0 miNorth (360°)11.5 mph21.9 mph0.03 inRainRain
10:41 PM59.0 °F57.2 °F94 %30.08 in2.5 miNorth (360°)13.8 mph0.10 inRainHeavy Rain
10:49 PM59.0 °F57.2 °F94 %30.08 in5.0 miNorth (360°)15.0 mph0.11 inRainLight Rain
10:53 PM59.0 °F57.0 °F93 %30.08 in7.0 miNorth (360°)13.8 mph21.9 mph0.11 inRainLight Rain
11:53 PM59.0 °F57.0 °F93 %30.07 in10.0 miNorth (360°)11.5 mph0.03 inRainLight Rain
Hourly data recorded from KILM, located miles away from Wilmington, North Carolina







STORIES FROM OUR PARTNERS